This demonstration page uses our WeatherBlox Daily Observations layout. Learn more.

Hourly Observations for June 15, 2019

Temp ( °F °C ) Dew Point ( °F °C ) Humidity (%) Winds ( mph kmh ) Pressure ( in mb ) Visibility ( mi km ) Precip ( " mm )
12:15 am 00:15 Clear 65 18.1 64 17.6 97 97 Calm 29.62 1003 10 16.09344 0 0
12:35 am 00:35 Partly Cloudy 64 18 63 17.2 95 95 W 13 20 29.65 1004 10 16.09344 0 0
12:55 am 00:55 Mostly Cloudy 68 20 63 17.4 85 85 WNW 8 13 29.65 1004 10 16.09344 0 0
1:15 am 01:15 Partly Cloudy 69 20.8 62 16.4 76 76 Calm 29.59 1002 10 16.09344 0 0
1:35 am 01:35 Clear 68 19.9 62 16.4 80 80 Calm 29.62 1003 10 16.09344 0 0
1:55 am 01:55 Clear 65 18.4 62 16.5 89 89 ENE 3 6 29.62 1003 10 16.09344 0 0
2:15 am 02:15 Clear 65 18.3 61 16.2 88 88 NE 3 6 29.62 1003 10 16.09344 0 0
2:35 am 02:35 Clear 65 18.1 61 15.9 87 87 WNW 9 15 29.62 1003 10 16.09344 0 0
2:55 am 02:55 Clear 65 18.2 60 15.7 85 85 W 7 11 29.62 1003 10 16.09344 0 0
3:15 am 03:15 Clear 64 18 60 15.6 86 86 W 5 7 29.62 1003 10 16.09344 0 0
3:35 am 03:35 Partly Cloudy 64 17.5 60 15.6 89 89 WNW 5 7 29.62 1003 10 16.09344 0 0
3:55 am 03:55 Mostly Cloudy 63 17.2 61 15.9 92 92 NW 3 6 29.62 1003 10 16.09344 0 0
4:15 am 04:15 Cloudy 63 17.2 61 16 93 93 Calm 29.62 1003 10 16.09344 0 0
4:35 am 04:35 Cloudy 63 17.1 61 16 93 93 WNW 6 9 29.62 1003 10 16.09344 0 0
4:55 am 04:55 Cloudy 63 17.3 61 16.1 93 93 W 3 6 29.65 1004 10 16.09344 0 0
5:15 am 05:15 Cloudy 64 17.6 60 15.7 89 89 WNW 10 17 29.65 1004 10 16.09344 0 0
5:35 am 05:35 Mostly Cloudy 64 17.5 60 15.5 88 88 WNW 13 20 29.65 1004 10 16.09344 0 0
5:55 am 05:55 Partly Cloudy 63 17 60 15.4 90 90 WNW 12 19 29.71 1006 10 16.09344 0 0
6:15 am 06:15 Sunny 62 16.7 60 15.5 93 93 WNW 9 15 29.71 1006 10 16.09344 0 0
6:35 am 06:35 Sunny 62 16.5 60 15.3 93 93 NW 8 13 29.71 1006 10 16.09344 0 0
6:55 am 06:55 Sunny 62 16.6 60 15.5 93 93 NW 9 15 29.71 1006 10 16.09344 0 0
7:15 am 07:15 Sunny 62 16.8 60 15.7 93 93 NNW 12 19 29.71 1006 10 16.09344 0 0
7:35 am 07:35 Sunny 65 18.1 60 15.4 84 84 N 12 19 29.71 1006 10 16.09344 0 0
7:55 am 07:55 Sunny 65 18.1 60 15.5 85 85 NNW 10 17 29.71 1006 10 16.09344 0 0
8:15 am 08:15 Sunny 66 19 60 15.8 82 82 N 10 17 29.71 1006 10 16.09344 0 0
8:35 am 08:35 Sunny 66 19.1 60 15.8 81 81 N 12 19 29.71 1006 10 16.09344 0 0
8:55 am 08:55 Sunny 68 20 60 15.7 76 76 N 14 22 29.71 1006 10 16.09344 0 0
9:15 am 09:15 Sunny 69 20.6 61 15.9 75 75 NNE 14 22 29.71 1006 10 16.09344 0 0
9:35 am 09:35 Sunny 71 21.4 61 16.1 72 72 NNE 12 19 29.74 1007 10 16.09344 0 0
9:55 am 09:55 Sunny 72 22.2 61 16 68 68 N 17 28 29.71 1006 10 16.09344 0 0
10:15 am 10:15 Partly Cloudy 73 22.5 61 15.9 66 66 N 16 26 29.74 1007 10 16.09344 0 0
10:35 am 10:35 Partly Cloudy 72 22.1 60 15.4 66 66 N 15 24 29.74 1007 10 16.09344 0 0
10:55 am 10:55 Mostly Cloudy 72 22 60 15.6 67 67 N 16 26 29.8 1009 10 16.09344 0 0
11:15 am 11:15 Partly Cloudy 73 22.6 59 14.9 62 62 N 15 24 29.77 1008 10 16.09344 0 0
11:35 am 11:35 Sunny 74 23.5 58 14.7 58 58 N 14 22 29.77 1008 10 16.09344 0 0
11:55 am 11:55 Sunny 75 24.1 60 15.5 59 59 N 13 20 29.77 1008 10 16.09344 0 0
12:15 pm 12:15 Sunny 76 24.6 61 16.2 60 60 N 12 19 29.77 1008 10 16.09344 0 0
12:35 pm 12:35 Sunny 77 24.8 59 15.1 55 55 N 9 15 29.77 1008 10 16.09344 0 0
12:55 pm 12:55 Sunny 77 25.1 61 16.1 57 57 N 12 19 29.77 1008 10 16.09344 0 0
1:15 pm 13:15 Sunny 77 24.9 59 15 54 54 N 9 15 29.77 1008 10 16.09344 0 0
1:35 pm 13:35 Sunny 78 25.4 58 14.4 51 51 NNW 14 22 29.77 1008 10 16.09344 0 0
1:55 pm 13:55 Sunny 79 25.9 59 14.8 50 50 NNE 12 19 29.74 1007 10 16.09344 0 0
2:15 pm 14:15 Sunny 78 25.7 60 15.7 54 54 N 10 17 29.74 1007 10 16.09344 0 0
2:35 pm 14:35 Sunny 79 26.1 62 16.5 56 56 NNW 8 13 29.74 1007 10 16.09344 0 0
2:55 pm 14:55 Partly Cloudy 79 25.9 60 15.8 54 54 N 10 17 29.74 1007 10 16.09344 0 0
3:15 pm 15:15 Sunny 80 26.7 60 15.8 51 51 NW 7 11 29.74 1007 10 16.09344 0 0
3:35 pm 15:35 Sunny 80 26.8 58 14.7 47 47 N 12 19 29.74 1007 10 16.09344 0 0
3:55 pm 15:55 Sunny 80 26.9 58 14.7 47 47 N 8 13 29.74 1007 10 16.09344 0 0
4:15 pm 16:15 Sunny 81 27 59 14.9 48 48 NNW 10 17 29.74 1007 10 16.09344 0 0
4:35 pm 16:35 Sunny 81 27.1 59 15.1 48 48 N 12 19 29.74 1007 10 16.09344 0 0
4:55 pm 16:55 Sunny 81 27 58 14.7 47 47 NNW 7 11 29.71 1006 10 16.09344 0 0
5:15 pm 17:15 Sunny 81 27 57 14.1 45 45 NNW 10 17 29.71 1006 10 16.09344 0 0
5:35 pm 17:35 Sunny 81 27 56 13.3 43 43 NNW 13 20 29.71 1006 10 16.09344 0 0
5:55 pm 17:55 Sunny 79 26.3 56 13.6 46 46 NNW 8 13 29.71 1006 10 16.09344 0 0
6:15 pm 18:15 Sunny 79 26.1 58 14.3 48 48 N 6 9 29.71 1006 10 16.09344 0 0
6:35 pm 18:35 Sunny 81 27 57 14 45 45 N 12 19 29.71 1006 10 16.09344 0 0
6:55 pm 18:55 Sunny 80 26.7 56 13.4 44 44 NNW 12 19 29.71 1006 10 16.09344 0 0
7:15 pm 19:15 Sunny 80 26.4 57 14 46 46 N 8 13 29.71 1006 10 16.09344 0 0
7:35 pm 19:35 Sunny 78 25.3 56 13.2 47 47 N 10 17 29.74 1007 10 16.09344 0 0
7:55 pm 19:55 Sunny 77 24.9 56 13.6 50 50 N 7 11 29.77 1008 10 16.09344 0 0
8:15 pm 20:15 Sunny 76 24.5 56 13.6 51 51 N 6 9 29.77 1008 10 16.09344 0 0
8:35 pm 20:35 Sunny 74 23.6 58 14.7 58 58 NNE 5 7 29.77 1008 10 16.09344 0 0
8:55 pm 20:55 Sunny 71 21.4 60 15.4 69 69 ENE 5 7 29.8 1009 10 16.09344 0 0
9:15 pm 21:15 Clear 69 20.6 59 15.2 71 71 NE 6 9 29.83 1010 10 16.09344 0 0
9:35 pm 21:35 Clear 68 19.8 59 15.1 74 74 NE 5 7 29.83 1010 10 16.09344 0 0
9:55 pm 21:55 Clear 66 18.9 59 14.9 78 78 ENE 5 7 29.85 1011 10 16.09344 0 0
10:15 pm 22:15 Clear 65 18.2 58 14.2 78 78 ENE 7 11 29.85 1011 10 16.09344 0 0
10:35 pm 22:35 Clear 65 18.1 57 14.1 78 78 ENE 6 9 29.85 1011 10 16.09344 0 0
10:55 pm 22:55 Clear 65 18.3 58 14.2 77 77 Calm 29.85 1011 10 16.09344 0 0
11:15 pm 23:15 Clear 63 17 57 14.1 83 83 E 3 6 29.88 1012 10 16.09344 0 0
11:35 pm 23:35 Clear 64 17.8 58 14.5 81 81 NNE 3 6 29.88 1012 10 16.09344 0 0
11:55 pm 23:55 Clear 59 15.2 57 14 93 93 N 5 7 29.91 1013 10 16.09344 0 0

Powered by AerisWeather